This demonstration page uses our WeatherBlox Daily Observations layout. Learn more.

Left ArrowRight Arrow

Hourly Observations for December 22, 2019

Temp ( °F °C ) Dew Point ( °F °C ) Humidity (%) Winds ( mph kmh ) Pressure ( in mb ) Visibility ( mi km ) Precip ( " mm )
12:51 am 00:51 Clear 46 7.8 21 -6.1 37 37 SE 14 22 30.22 1023 10 16 N/A
1:51 am 01:51 Clear 46 7.8 21 -6.1 37 37 ESE 12 19 30.21 1023 10 16 N/A
2:51 am 02:51 Clear 45 7.2 21 -6.1 39 39 ESE 9 15 30.21 1023 10 16 N/A
3:51 am 03:51 Clear 45 7.2 21 -6.1 39 39 ESE 14 22 30.20 1023 10 16 N/A
4:51 am 04:51 Clear 43 6.1 21 -6.1 42 42 ESE 12 19 30.21 1023 10 16 N/A
5:51 am 05:51 Clear 44 6.7 20 -6.7 38 38 ESE 14 22 30.22 1023 10 16 N/A
6:51 am 06:51 Clear 44 6.7 20 -6.7 38 38 ESE 14 22 30.24 1024 10 16 N/A
7:51 am 07:51 Sunny 42 5.6 20 -6.7 41 41 ESE 12 19 30.26 1025 10 16 N/A
8:51 am 08:51 Sunny 45 7.2 20 -6.7 37 37 ESE 13 20 30.24 1024 10 16 N/A
9:51 am 09:51 Sunny 47 8.3 20 -6.7 34 34 ESE 17 28 30.26 1025 10 16 N/A
10:51 am 10:51 Sunny 50 10 21 -6.1 32 32 SE 14 22 30.23 1024 10 16 N/A
11:51 am 11:51 Sunny 52 11.1 20 -6.7 28 28 SE 15 24 30.19 1022 10 16 N/A
12:51 pm 12:51 Sunny 53 11.7 20 -6.7 27 27 SSE 9 15 30.13 1020 10 16 N/A
1:51 pm 13:51 Sunny 56 13.3 20 -6.7 24 24 SE 9 15 30.09 1019 10 16 N/A
2:51 pm 14:51 Sunny 58 14.4 20 -6.7 23 23 SSE 5 7 30.09 1019 10 16 N/A
3:51 pm 15:51 Sunny 58 14.4 22 -5.6 25 25 E 6 9 30.07 1018 10 16 N/A
4:51 pm 16:51 Sunny 57 13.9 23 -5 27 27 ESE 6 9 30.07 1018 10 16 N/A
5:51 pm 17:51 Clear 50 10 24 -4.4 36 36 E 9 15 30.08 1019 10 16 N/A
6:51 pm 18:51 Clear 50 10 24 -4.4 36 36 E 10 17 30.08 1019 10 16 N/A
7:51 pm 19:51 Clear 47 8.3 25 -3.9 42 42 SSE 8 13 30.10 1019 10 16 N/A
8:51 pm 20:51 Clear 48 8.9 23 -5 37 37 SE 9 15 30.09 1019 10 16 N/A
9:51 pm 21:51 Clear 46 7.8 23 -5 40 40 SE 10 17 30.09 1019 10 16 N/A
10:51 pm 22:51 Clear 44 6.7 23 -5 43 43 ESE 6 9 30.10 1019 10 16 N/A
11:51 pm 23:51 Clear 46 7.8 21 -6.1 37 37 SE 10 17 30.08 1019 10 16 N/A

Powered by AerisWeather